Taurus 1
1 44530U 19059C   25025.77247116  .00015103  00000-0  29899-2 0  9998
2 44530  98.5893 159.2394 0009714  92.7082 267.5230 14.62371218284219
Duchifat 3
1 44854U 19089C   25025.66118192  .00044296  00000-0  13813-2 0  9993
2 44854  36.9483 123.9091 0009729 155.4301 204.6916 15.32242577282144
TO-108
1 44881U 19093C   25025.76252114  .00002641  00000-0  31508-3 0  9992
2 44881  97.8075 104.1989 0013043 318.3915  41.6306 14.85044978276067
FloripaSat 1
1 44885U 19093G   25025.81904763  .00010662  00000-0  96060-3 0  9992
2 44885  97.8249 113.3726 0010572 298.6049  61.4108 14.95723411276581
RS-44
1 44909U 19096E   25025.30139540 -.00000001  00000-0 -40637-4 0  9997
2 44909  82.5247 317.1785 0216338 251.8559 105.8878 12.79737944237389
UPMSat 2
1 46276U 20061E   25025.54030707  .00047883  00000-0  82825-3 0  9992
2 46276  97.2670  97.1488 0001354  65.8522 294.2872 15.50808001244424
AmicalSat
1 46287U 20061R   25010.85863821  .11283921  24654-5  56408-3 0  9994
2 46287  97.2840  89.8720 0009935 281.1985  78.8199 16.41970930241877
SALSAT
1 46495U 20068K   25025.44155421  .00013577  00000-0  64437-3 0  9994
2 46495  97.8452 357.6849 0010202 270.5367  89.4698 15.19345220237987
CubeSX-Sirius-HSE
1 47951U 21022V   25025.82950687  .00073039  00000-0  13303-2 0  9996
2 47951  97.4375 292.4661 0011843  67.4686 292.7817 15.49155636212733
CubeSX-HSE
1 47952U 21022W   25025.81525194  .00080148  00000-0  14400-2 0  9995
2 47952  97.4366 292.6180 0011988  66.9400 293.3114 15.49514681212747
KSU-Cubesat
1 47954U 21022Y   25025.72325327  .00168449  00000-0  17261-2 0  9992
2 47954  97.4357 296.0549 0010341  66.4045 293.8298 15.64366511212672
GRBAlpha
1 47959U 21022AD  25025.77534154  .00074949  00000-0  13526-2 0  9993
2 47959  97.4368 292.7415 0011827  67.6935 292.5568 15.49410478211563
Orbicraft-Zorkiy
1 47960U 21022AE  25025.83301782  .00112020  00000-0  14668-2 0  9992
2 47960  97.4365 295.5767 0010818  65.5548 294.6835 15.58151788212410
TUBIN
1 48900U 21059X   25025.76461683  .00041800  00000-0  85308-3 0  9993
2 48900  97.6633 185.6525 0005292  14.8244 345.3159 15.46066622199119
LEDSAT
1 49069U 21073D   25025.67475477  .00051173  00000-0  11795-2 0  9994
2 49069  97.4091 103.4397 0013067 208.3655 151.6882 15.42335756190522
CUTE
1 49263U 21088D   25025.14099451  .00053331  00000-0  13649-2 0  9990
2 49263  97.4690  98.0347 0009609  20.4499 339.7130 15.39190853183534
TeikyoSat 4
1 49396U 21102B   25025.51218501  .00004559  00000-0  31134-3 0  9992
2 49396  97.4320  68.7520 0011381 231.9937 128.0264 15.06608119176200
Z-Sat
1 49399U 21102E   25025.81465945  .00008640  00000-0  49878-3 0  9993
2 49399  97.4021  71.3879 0018057 207.0776 152.9514 15.12429892176592
KOSEN 1
1 49402U 21102H   25025.61969557  .00012351  00000-0  62142-3 0  9997
2 49402  97.3937  73.6894 0016603 185.6408 174.4641 15.17240010176804
HO-113
1 50466U 21131B   25025.81523470  .00001547  00000-0  50020-3 0  9990
2 50466  98.5163 115.8541 0004418 167.4734 192.6565 14.40481719162045
IRIS-A
1 51044U 22002BN  25025.15081288  .00073925  00000-0  11170-2 0  9995
2 51044  97.3506  99.5465 0003861 318.6520  41.4441 15.54464837168603
Foresail-1
1 52766U 22057AL  25025.37035972  .00071669  00000-0  10900-2 0  9993
2 52766  97.5967 165.5902 0005625  46.7090 313.4632 15.54284640148670
SNUGLITE 2
1 52899U 22065F   25025.60997747  .00003360  00000-0  67173-3 0  9990
2 52899  98.1447 169.1334 0007739 169.2340 190.9028 14.62502528136752
IO-117
1 53106U 22080B   25013.55270770 -.00000003  00000-0  00000+0 0  9994
2 53106  70.1424 119.4379 0008206  58.9554 301.1910  6.42557525 58785
FO-118
1 54684U 22167C   25025.80594218  .00236112  00000-0  17520-2 0  9998
2 54684  97.6105 187.3309 0004016   5.9370 354.1940 15.72160546118679
SO-120
1 56992U 23084BU  25025.60632452  .00459567  00000-0  21185-2 0  9995
2 56992  97.5277 159.4518 0009710 297.4599  62.5681 15.82333576 90533
UmKA 1 (RS40S)
1 57172U 23091G   25025.79367502  .00010083  00000-0  57734-3 0  9991
2 57172  97.5814  81.9657 0016702  80.4705 279.8413 15.12704983 87081
CubeBel-2 (EU11S)
1 57175U 23091K   25025.78467002  .00014990  00000-0  79699-3 0  9994
2 57175  97.5813  82.4265 0014584  89.8191 270.4712 15.15281306 87117
VERONIKA
1 58261U 23174F   25025.78756618  .00061872  00000-0  14485-2 0  9999
2 58261  97.4335 107.0613 0007837 172.2997 187.8372 15.41874981 67743
KAFASAT
1 58317U 23174BP  25025.76620784  .00145328  00000-0  19595-2 0  9999
2 58317  97.4231 109.8010 0004275 147.5491 212.6028 15.57305266 67947
ENSO
1 58470U 23185J   25025.83468554  .00044349  00000-0  11126-2 0  9997
2 58470  97.3957  98.1772 0008708 203.3804 156.7047 15.39855096 64194
EIRSAT-1
1 58472U 23185L   25025.83692605  .00059242  00000-0  13238-2 0  9999
2 58472  97.3949  98.7444 0007944 204.3945 155.6928 15.43282707 64236
SONATE-2
1 59112U 24043Q   25025.33941069  .00025963  00000-0  92519-3 0  9994
2 59112  97.4947 154.6398 0011642 233.6531 126.3635 15.28839214 49623
MO-122
1 60209U 24125G   25025.50992758  .00025538  00000-0  89950-3 0  9997
2 60209  97.2956 239.1236 0020392 261.6322  98.2607 15.29084947 31264
GRBBeta
1 60237U 24128C   25025.56521904  .00007767  00000-0  61906-3 0  9993
2 60237  61.9912 189.6167 0037230  25.7859 334.5076 15.00552273 29927
Curium One
1 60242U 24128H   25025.43454336  .00013305  00000-0  10183-2 0  9994
2 60242  61.9818 189.8662 0037311  19.6240 340.6276 15.01639628 29916
ROBUSTA-3A
1 60243U 24128J   25025.53425617  .00010249  00000-0  79694-3 0  9993
2 60243  61.9886 189.9453 0035371  17.5912 342.6394 15.01290351 29928
CatSat
1 60246U 24125J   25025.57259234  .00017174  00000-0  64395-3 0  9993
2 60246  97.2750 239.6569 0045241 212.7333 147.1102 15.26328365 29364
AO-123
1 61781U 24199AY  25025.84814614  .00015761  00000-0  62802-3 0  9999
2 61781  97.3765 255.3807 0016092 319.8597  40.1452 15.25183794 56329
POEM 4 (BGS ARPIT)
1 62461U 24253C   25025.76302231  .00121547  00000-0  73109-3 0  9996
2 62461  55.2213 131.2239 0008632 354.9826   5.1134 15.76886483  4099
